����������;��������(kWh)
2019-05-20 00:00;73,45
2019-05-20 00:15;73,55
2019-05-20 00:30;72,7
2019-05-20 00:45;72,15
2019-05-20 01:00;70,2
2019-05-20 01:15;71,25
2019-05-20 01:30;72,2
2019-05-20 01:45;71,4
2019-05-20 02:00;74,95
2019-05-20 02:15;75,7
2019-05-20 02:30;77,8
2019-05-20 02:45;76
2019-05-20 03:00;75,15
2019-05-20 03:15;75,7
2019-05-20 03:30;74,8
2019-05-20 03:45;69,3
2019-05-20 04:00;68,45
2019-05-20 04:15;69,5
2019-05-20 04:30;72,25
2019-05-20 04:45;71,5
2019-05-20 05:00;72,3
2019-05-20 05:15;73,3
2019-05-20 05:30;74,25
2019-05-20 05:45;73,65
2019-05-20 06:00;69,4
2019-05-20 06:15;65,5
2019-05-20 06:30;64,05
2019-05-20 06:45;67,1
2019-05-20 07:00;69,3
2019-05-20 07:15;67,85
2019-05-20 07:30;67,6
2019-05-20 07:45;71,7
2019-05-20 08:00;74,75
2019-05-20 08:15;76,55
2019-05-20 08:30;84,4
2019-05-20 08:45;89,1
2019-05-20 09:00;96,2
2019-05-20 09:15;97,35
2019-05-20 09:30;101,6
2019-05-20 09:45;106,35
2019-05-20 10:00;108,1
2019-05-20 10:15;112,3
2019-05-20 10:30;116,4
2019-05-20 10:45;114,6
2019-05-20 11:00;120,4
2019-05-20 11:15;126,2
2019-05-20 11:30;130,45
2019-05-20 11:45;131,45
2019-05-20 12:00;132,1
2019-05-20 12:15;130,75
2019-05-20 12:30;125,75
2019-05-20 12:45;130,6
2019-05-20 13:00;131,5
2019-05-20 13:15;130,35
2019-05-20 13:30;134,1
2019-05-20 13:45;129,65
2019-05-20 14:00;130,6
2019-05-20 14:15;129,55
2019-05-20 14:30;126,05
2019-05-20 14:45;124,1
2019-05-20 15:00;124,85
2019-05-20 15:15;127,05
2019-05-20 15:30;134,15
2019-05-20 15:45;129,25
2019-05-20 16:00;121,2
2019-05-20 16:15;116,6
2019-05-20 16:30;111,4
2019-05-20 16:45;108,55
2019-05-20 17:00;111,05
2019-05-20 17:15;107,2
2019-05-20 17:30;103,3
2019-05-20 17:45;106,15
2019-05-20 18:00;101,85
2019-05-20 18:15;103,7
2019-05-20 18:30;97,65
2019-05-20 18:45;99,25
2019-05-20 19:00;97,45
2019-05-20 19:15;104,25
2019-05-20 19:30;111,1
2019-05-20 19:45;109,1
2019-05-20 20:00;101,15
2019-05-20 20:15;96,35
2019-05-20 20:30;95,85
2019-05-20 20:45;101,35
2019-05-20 21:00;96,55
2019-05-20 21:15;93,35
2019-05-20 21:30;98,9
2019-05-20 21:45;98,3
2019-05-20 22:00;93,5
2019-05-20 22:15;92,05
2019-05-20 22:30;84,5
2019-05-20 22:45;80,35
2019-05-20 23:00;82,45
2019-05-20 23:15;81,25
2019-05-20 23:30;80
2019-05-20 23:45;78,6
2019-05-21 00:00;78,05
2019-05-21 00:15;78,55
2019-05-21 00:30;77,6
2019-05-21 00:45;79,9
2019-05-21 01:00;76,4
2019-05-21 01:15;75,25
2019-05-21 01:30;75,8
2019-05-21 01:45;75,45
2019-05-21 02:00;74,1
2019-05-21 02:15;74,95
2019-05-21 02:30;74,25
2019-05-21 02:45;72,85
2019-05-21 03:00;75,55
2019-05-21 03:15;76,2
2019-05-21 03:30;73,85
2019-05-21 03:45;73,7
2019-05-21 04:00;73,3
2019-05-21 04:15;75,85
2019-05-21 04:30;73,7
2019-05-21 04:45;73,8
2019-05-21 05:00;76,35
2019-05-21 05:15;76,25
2019-05-21 05:30;78,3
2019-05-21 05:45;80,35
2019-05-21 06:00;76,55
2019-05-21 06:15;71,4
2019-05-21 06:30;70,2
2019-05-21 06:45;71,15
2019-05-21 07:00;77,45
2019-05-21 07:15;79,1
2019-05-21 07:30;85,25
2019-05-21 07:45;88,25
2019-05-21 08:00;87,15
2019-05-21 08:15;86,7
2019-05-21 08:30;89,65
2019-05-21 08:45;95,65
2019-05-21 09:00;100,25
2019-05-21 09:15;105
2019-05-21 09:30;111,1
2019-05-21 09:45;112,95
2019-05-21 10:00;115,25
2019-05-21 10:15;120,75
2019-05-21 10:30;132
2019-05-21 10:45;126,55
2019-05-21 11:00;131,9
2019-05-21 11:15;136,75
2019-05-21 11:30;138,55
2019-05-21 11:45;135,05
2019-05-21 12:00;134,4
2019-05-21 12:15;136,05
2019-05-21 12:30;143,15
2019-05-21 12:45;145,05
2019-05-21 13:00;147,45
2019-05-21 13:15;141,3
2019-05-21 13:30;143,45
2019-05-21 13:45;141,05
2019-05-21 14:00;139,4
2019-05-21 14:15;139,15
2019-05-21 14:30;140,3
2019-05-21 14:45;138,25
2019-05-21 15:00;134,45
2019-05-21 15:15;138,4
2019-05-21 15:30;136,2
2019-05-21 15:45;125,75
2019-05-21 16:00;124,4
2019-05-21 16:15;121,6
2019-05-21 16:30;120,45
2019-05-21 16:45;121,05
2019-05-21 17:00;122,05
2019-05-21 17:15;116,3
2019-05-21 17:30;115
2019-05-21 17:45;110,5
2019-05-21 18:00;108,1
2019-05-21 18:15;110,45
2019-05-21 18:30;107,75
2019-05-21 18:45;112,65
2019-05-21 19:00;105,9
2019-05-21 19:15;108,7
2019-05-21 19:30;105,95
2019-05-21 19:45;109,5
2019-05-21 20:00;106,1
2019-05-21 20:15;102,4
2019-05-21 20:30;107,7
2019-05-21 20:45;106,35
2019-05-21 21:00;105,7
2019-05-21 21:15;102,5
2019-05-21 21:30;103,7
2019-05-21 21:45;99,5
2019-05-21 22:00;93,75
2019-05-21 22:15;89,4
2019-05-21 22:30;89,9
2019-05-21 22:45;87
2019-05-21 23:00;83,7
2019-05-21 23:15;81,7
2019-05-21 23:30;80,55
2019-05-21 23:45;79,3
2019-05-22 00:00;77,55
2019-05-22 00:15;80,3
2019-05-22 00:30;79
2019-05-22 00:45;78
2019-05-22 01:00;77,75
2019-05-22 01:15;77,45
2019-05-22 01:30;78,5
2019-05-22 01:45;76,9
2019-05-22 02:00;77,4
2019-05-22 02:15;75,3
2019-05-22 02:30;76,2
2019-05-22 02:45;75,6
2019-05-22 03:00;75
2019-05-22 03:15;74,35
2019-05-22 03:30;77,55
2019-05-22 03:45;76,7
2019-05-22 04:00;76,05
2019-05-22 04:15;74,65
2019-05-22 04:30;74,95
2019-05-22 04:45;77,25
2019-05-22 05:00;75,5
2019-05-22 05:15;78,2
2019-05-22 05:30;78,4
2019-05-22 05:45;77,95
2019-05-22 06:00;77,45
2019-05-22 06:15;76,1
2019-05-22 06:30;72,15
2019-05-22 06:45;70,75
2019-05-22 07:00;76,75
2019-05-22 07:15;77,55
2019-05-22 07:30;78,5
2019-05-22 07:45;84,7
2019-05-22 08:00;87,4
2019-05-22 08:15;89,8
2019-05-22 08:30;90,75
2019-05-22 08:45;92,85
2019-05-22 09:00;94,95
2019-05-22 09:15;105,05
2019-05-22 09:30;107,25
2019-05-22 09:45;106,45
2019-05-22 10:00;106,85
2019-05-22 10:15;117,95
2019-05-22 10:30;119,95
2019-05-22 10:45;116
2019-05-22 11:00;119,85
2019-05-22 11:15;128,5
2019-05-22 11:30;134,15
2019-05-22 11:45;134,75
2019-05-22 12:00;137,8
2019-05-22 12:15;141,1
2019-05-22 12:30;143,75
2019-05-22 12:45;140,3
2019-05-22 13:00;140,5
2019-05-22 13:15;139,15
2019-05-22 13:30;142,9
2019-05-22 13:45;143,9
2019-05-22 14:00;143,75
2019-05-22 14:15;143,55
2019-05-22 14:30;143,55
2019-05-22 14:45;138,15
2019-05-22 15:00;134,65
2019-05-22 15:15;130,05
2019-05-22 15:30;130,4
2019-05-22 15:45;130,2
2019-05-22 16:00;126,25
2019-05-22 16:15;120,65
2019-05-22 16:30;117,65
2019-05-22 16:45;112,55
2019-05-22 17:00;114,7
2019-05-22 17:15;110,75
2019-05-22 17:30;108,95
2019-05-22 17:45;110
2019-05-22 18:00;108,5
2019-05-22 18:15;108,05
2019-05-22 18:30;108,75
2019-05-22 18:45;107,75
2019-05-22 19:00;103,25
2019-05-22 19:15;105,45
2019-05-22 19:30;110
2019-05-22 19:45;112,55
2019-05-22 20:00;102,45
2019-05-22 20:15;100
2019-05-22 20:30;102,05
2019-05-22 20:45;105
2019-05-22 21:00;101,95
2019-05-22 21:15;96,25
2019-05-22 21:30;98,2
2019-05-22 21:45;90,1
2019-05-22 22:00;91,3
2019-05-22 22:15;91,65
2019-05-22 22:30;91,4
2019-05-22 22:45;90,1
2019-05-22 23:00;90,2
2019-05-22 23:15;85,45
2019-05-22 23:30;86,2
2019-05-22 23:45;81,15
2019-05-23 00:00;75,5
2019-05-23 00:15;76,3
2019-05-23 00:30;75,35
2019-05-23 00:45;76,1
2019-05-23 01:00;75,35
2019-05-23 01:15;76,85
2019-05-23 01:30;75,7
2019-05-23 01:45;74,55
2019-05-23 02:00;75
2019-05-23 02:15;75,35
2019-05-23 02:30;73,95
2019-05-23 02:45;73,15
2019-05-23 03:00;74,95
2019-05-23 03:15;74,75
2019-05-23 03:30;75,6
2019-05-23 03:45;75,6
2019-05-23 04:00;75,05
2019-05-23 04:15;76,35
2019-05-23 04:30;77,1
2019-05-23 04:45;74,7
2019-05-23 05:00;74,5
2019-05-23 05:15;77,15
2019-05-23 05:30;79,75
2019-05-23 05:45;77,9
2019-05-23 06:00;75,65
2019-05-23 06:15;72,85
2019-05-23 06:30;71,65
2019-05-23 06:45;70,55
2019-05-23 07:00;73,65
2019-05-23 07:15;71,25
2019-05-23 07:30;77,05
2019-05-23 07:45;83,1
2019-05-23 08:00;85,45
2019-05-23 08:15;85,9
2019-05-23 08:30;88,1
2019-05-23 08:45;94,95
2019-05-23 09:00;99,45
2019-05-23 09:15;101,75
2019-05-23 09:30;107,65
2019-05-23 09:45;110,2
2019-05-23 10:00;117,6
2019-05-23 10:15;125,25
2019-05-23 10:30;127,9
2019-05-23 10:45;125,65
2019-05-23 11:00;132,2
2019-05-23 11:15;131,7
2019-05-23 11:30;132,4
2019-05-23 11:45;138,3
2019-05-23 12:00;138,2
2019-05-23 12:15;141,55
2019-05-23 12:30;141,35
2019-05-23 12:45;141,6
2019-05-23 13:00;141,65
2019-05-23 13:15;139,2
2019-05-23 13:30;139,75
2019-05-23 13:45;136,1
2019-05-23 14:00;134,35
2019-05-23 14:15;137,85
2019-05-23 14:30;138,8
2019-05-23 14:45;135,3
2019-05-23 15:00;134
2019-05-23 15:15;129,1
2019-05-23 15:30;123,25
2019-05-23 15:45;125,45
2019-05-23 16:00;123,8
2019-05-23 16:15;121
2019-05-23 16:30;115,8
2019-05-23 16:45;113,9
2019-05-23 17:00;114,7
2019-05-23 17:15;111,8
2019-05-23 17:30;112,6
2019-05-23 17:45;108
2019-05-23 18:00;110,5
2019-05-23 18:15;106,45
2019-05-23 18:30;107,15
2019-05-23 18:45;109,25
2019-05-23 19:00;108,25
2019-05-23 19:15;110,5
2019-05-23 19:30;108,6
2019-05-23 19:45;113,35
2019-05-23 20:00;106,75
2019-05-23 20:15;99,95
2019-05-23 20:30;100,4
2019-05-23 20:45;107,65
2019-05-23 21:00;107,7
2019-05-23 21:15;106,55
2019-05-23 21:30;108
2019-05-23 21:45;98,6
2019-05-23 22:00;95,55
2019-05-23 22:15;91,35
2019-05-23 22:30;90,6
2019-05-23 22:45;88,45
2019-05-23 23:00;92,25
2019-05-23 23:15;90,15
2019-05-23 23:30;80,85
2019-05-23 23:45;82,5
2019-05-24 00:00;79,9
2019-05-24 00:15;77,3
2019-05-24 00:30;78,9
2019-05-24 00:45;79,35
2019-05-24 01:00;80
2019-05-24 01:15;77,4
2019-05-24 01:30;75,6
2019-05-24 01:45;77,85
2019-05-24 02:00;75,75
2019-05-24 02:15;76,45
2019-05-24 02:30;76,45
2019-05-24 02:45;77,85
2019-05-24 03:00;76,65
2019-05-24 03:15;76,45
2019-05-24 03:30;77,45
2019-05-24 03:45;77,55
2019-05-24 04:00;76,45
2019-05-24 04:15;77,4
2019-05-24 04:30;77,2
2019-05-24 04:45;77,7
2019-05-24 05:00;77,25
2019-05-24 05:15;78,85
2019-05-24 05:30;79,4
2019-05-24 05:45;77,8
2019-05-24 06:00;78,5
2019-05-24 06:15;71,5
2019-05-24 06:30;70,95
2019-05-24 06:45;68,8
2019-05-24 07:00;73,6
2019-05-24 07:15;76,65
2019-05-24 07:30;76,8
2019-05-24 07:45;84,6
2019-05-24 08:00;84,65
2019-05-24 08:15;84,25
2019-05-24 08:30;86,1
2019-05-24 08:45;87,9
2019-05-24 09:00;98,45
2019-05-24 09:15;98,35
2019-05-24 09:30;102,2
2019-05-24 09:45;105,85
2019-05-24 10:00;112,2
2019-05-24 10:15;107,5
2019-05-24 10:30;113,55
2019-05-24 10:45;118,3
2019-05-24 11:00;116,6
2019-05-24 11:15;120,75
2019-05-24 11:30;129,9
2019-05-24 11:45;132,3
2019-05-24 12:00;136,95
2019-05-24 12:15;135,2
2019-05-24 12:30;135,2
2019-05-24 12:45;135,2
2019-05-24 13:00;134,8
2019-05-24 13:15;134,15
2019-05-24 13:30;130,45
2019-05-24 13:45;133,6
2019-05-24 14:00;130,5
2019-05-24 14:15;127,5
2019-05-24 14:30;124,5
2019-05-24 14:45;122,3
2019-05-24 15:00;118,1
2019-05-24 15:15;114,75
2019-05-24 15:30;108,7
2019-05-24 15:45;108,75
2019-05-24 16:00;106,55
2019-05-24 16:15;103,15
2019-05-24 16:30;105,2
2019-05-24 16:45;103,85
2019-05-24 17:00;98,65
2019-05-24 17:15;93,9
2019-05-24 17:30;98,2
2019-05-24 17:45;96,35
2019-05-24 18:00;95,55
2019-05-24 18:15;92,1
2019-05-24 18:30;91,5
2019-05-24 18:45;91
2019-05-24 19:00;93,8
2019-05-24 19:15;92
2019-05-24 19:30;94,6
2019-05-24 19:45;91,05
2019-05-24 20:00;91,85
2019-05-24 20:15;95,15
2019-05-24 20:30;94,3
2019-05-24 20:45;96,3
2019-05-24 21:00;91,45
2019-05-24 21:15;91,85
2019-05-24 21:30;91,75
2019-05-24 21:45;85,15
2019-05-24 22:00;82,95
2019-05-24 22:15;80
2019-05-24 22:30;78,15
2019-05-24 22:45;77,55
2019-05-24 23:00;80,7
2019-05-24 23:15;74,9
2019-05-24 23:30;74,85
2019-05-24 23:45;75,8
2019-05-25 00:00;75,85
2019-05-25 00:15;75,75
2019-05-25 00:30;77,55
2019-05-25 00:45;77,8
2019-05-25 01:00;76,9
2019-05-25 01:15;77,9
2019-05-25 01:30;77,7
2019-05-25 01:45;76,8
2019-05-25 02:00;74,3
2019-05-25 02:15;74,45
2019-05-25 02:30;74
2019-05-25 02:45;78,05
2019-05-25 03:00;73,2
2019-05-25 03:15;73,2
2019-05-25 03:30;73,25
2019-05-25 03:45;74,65
2019-05-25 04:00;76,4
2019-05-25 04:15;76,45
2019-05-25 04:30;73,75
2019-05-25 04:45;76,2
2019-05-25 05:00;74,35
2019-05-25 05:15;74,35
2019-05-25 05:30;75,35
2019-05-25 05:45;75,25
2019-05-25 06:00;74,4
2019-05-25 06:15;69,35
2019-05-25 06:30;68,95
2019-05-25 06:45;70,25
2019-05-25 07:00;70,5
2019-05-25 07:15;69,95
2019-05-25 07:30;67,9
2019-05-25 07:45;68,5
2019-05-25 08:00;70,15
2019-05-25 08:15;69,95
2019-05-25 08:30;73,1
2019-05-25 08:45;76,75
2019-05-25 09:00;75,1
2019-05-25 09:15;77,05
2019-05-25 09:30;77,05
2019-05-25 09:45;73,2
2019-05-25 10:00;75,35
2019-05-25 10:15;75,3
2019-05-25 10:30;75,4
2019-05-25 10:45;74,85
2019-05-25 11:00;77
2019-05-25 11:15;73,85
2019-05-25 11:30;76,25
2019-05-25 11:45;76,35
2019-05-25 12:00;76,4
2019-05-25 12:15;76
2019-05-25 12:30;77,5
2019-05-25 12:45;79,15
2019-05-25 13:00;80,45
2019-05-25 13:15;79
2019-05-25 13:30;78,85
2019-05-25 13:45;78,8
2019-05-25 14:00;76,65
2019-05-25 14:15;75,35
2019-05-25 14:30;76,05
2019-05-25 14:45;74,6
2019-05-25 15:00;76,65
2019-05-25 15:15;76,6
2019-05-25 15:30;73,7
2019-05-25 15:45;75,3
2019-05-25 16:00;74,75
2019-05-25 16:15;71,9
2019-05-25 16:30;74,15
2019-05-25 16:45;72,35
2019-05-25 17:00;73,3
2019-05-25 17:15;73,5
2019-05-25 17:30;71
2019-05-25 17:45;73
2019-05-25 18:00;75,7
2019-05-25 18:15;76,45
2019-05-25 18:30;75,9
2019-05-25 18:45;76,05
2019-05-25 19:00;76,6
2019-05-25 19:15;76,85
2019-05-25 19:30;79,45
2019-05-25 19:45;81,6
2019-05-25 20:00;79,55
2019-05-25 20:15;81,65
2019-05-25 20:30;81,75
2019-05-25 20:45;82,75
2019-05-25 21:00;84,3
2019-05-25 21:15;82,5
2019-05-25 21:30;82,9
2019-05-25 21:45;81,6
2019-05-25 22:00;75,25
2019-05-25 22:15;76,2
2019-05-25 22:30;75,4
2019-05-25 22:45;73,2
2019-05-25 23:00;80,35
2019-05-25 23:15;77,35
2019-05-25 23:30;73,85
2019-05-25 23:45;73
2019-05-26 00:00;72,75
2019-05-26 00:15;72,75
2019-05-26 00:30;72,9
2019-05-26 00:45;70,5
2019-05-26 01:00;71,3
2019-05-26 01:15;71,8
2019-05-26 01:30;71,4
2019-05-26 01:45;69,8
2019-05-26 02:00;70,8
2019-05-26 02:15;70,2
2019-05-26 02:30;69,4
2019-05-26 02:45;70,1
2019-05-26 03:00;71,75
2019-05-26 03:15;70,5
2019-05-26 03:30;69,3
2019-05-26 03:45;71,45
2019-05-26 04:00;72,1
2019-05-26 04:15;0
2019-05-26 04:30;0
2019-05-26 04:45;0
2019-05-26 05:00;0
2019-05-26 05:15;0
2019-05-26 05:30;0
2019-05-26 05:45;0
2019-05-26 06:00;0
2019-05-26 06:15;0
2019-05-26 06:30;0
2019-05-26 06:45;0
2019-05-26 07:00;0
2019-05-26 07:15;0
2019-05-26 07:30;0
2019-05-26 07:45;0
2019-05-26 08:00;0
2019-05-26 08:15;0
2019-05-26 08:30;0
2019-05-26 08:45;0
2019-05-26 09:00;0
2019-05-26 09:15;0
2019-05-26 09:30;0
2019-05-26 09:45;0
2019-05-26 10:00;0
2019-05-26 10:15;0
2019-05-26 10:30;0
2019-05-26 10:45;0
2019-05-26 11:00;0
2019-05-26 11:15;0
2019-05-26 11:30;0
2019-05-26 11:45;0
2019-05-26 12:00;0
2019-05-26 12:15;0
2019-05-26 12:30;0
2019-05-26 12:45;0
2019-05-26 13:00;0
2019-05-26 13:15;0
2019-05-26 13:30;0
2019-05-26 13:45;0
2019-05-26 14:00;0
2019-05-26 14:15;0
2019-05-26 14:30;0
2019-05-26 14:45;0
2019-05-26 15:00;0
2019-05-26 15:15;0
2019-05-26 15:30;0
2019-05-26 15:45;0
2019-05-26 16:00;0
2019-05-26 16:15;0
2019-05-26 16:30;0
2019-05-26 16:45;0
2019-05-26 17:00;0
2019-05-26 17:15;0
2019-05-26 17:30;0
2019-05-26 17:45;0
2019-05-26 18:00;0
2019-05-26 18:15;0
2019-05-26 18:30;0
2019-05-26 18:45;0
2019-05-26 19:00;0
2019-05-26 19:15;0
2019-05-26 19:30;0
2019-05-26 19:45;0
2019-05-26 20:00;0
2019-05-26 20:15;0
2019-05-26 20:30;0
2019-05-26 20:45;0
2019-05-26 21:00;0
2019-05-26 21:15;0
2019-05-26 21:30;0
2019-05-26 21:45;0
2019-05-26 22:00;0
2019-05-26 22:15;0
2019-05-26 22:30;0
2019-05-26 22:45;0
2019-05-26 23:00;0
2019-05-26 23:15;0
2019-05-26 23:30;0
2019-05-26 23:45;0

